Regional Weather Roundup
Issued by NWS

Home | Current Version | Previous Version | Text Only | Print | Product List | Glossary Off
Versions: 1 2 3 4 5 6 7 8 9 10 11 12 13 14 15 16 17 18 19 20 21 22 23 24 25 26 27 28 29 30 31 32 33 34 35 36 37 38 39 40 41 42 43 44 45 46 47 48 49 50

000
ASUS45 KBOU 041607
RWRCO

WEATHER ROUNDUP FOR COLORADO
NATIONAL WEATHER SERVICE DENVER/BOULDER CO
900 AM MST WED MAR 04 2015

NOTE: "FAIR" INDICATES FEW OR NO CLOUDS BELOW 12000 FEET WITH NO
SIGNIFICANT WEATHER AND/OR OBSTRUCTIONS TO VISIBILITY.

COZ001>005-013-030-031-041700-
...NORTHWEST COLORADO...

CITY           SKY/WX    TMP DP  RH WIND       PRES   REMARKS
CRAIG          LGT SNOW  10   6  84 SE3       30.07R FOG
HAYDEN         CLOUDY     9   3  78 CALM      30.04R
MEEKER         SUNNY     16   5  62 E12       30.04R WCI   3
MOUNT WERNER   NOT AVBL
STEAMBOAT SPGS CLOUDY     9   4  78 CALM      30.02R
WALDEN         CLOUDY     7   0  72 CALM      29.93R
$$

COZ006>008-011-041700-
...WEST CENTRAL VALLEYS...

CITY           SKY/WX    TMP DP  RH WIND       PRES   REMARKS
GRAND JUNCTION SUNNY     30  18  60 CALM      30.08R
MONTROSE       CLOUDY    28  16  60 N6        30.07R WCI  22
EAGLE          MOSUNNY   21  16  79 W5        30.05R WCI  15
RIFLE          SUNNY     25   8  48 CALM      30.07R
DELTA          NOT AVBL
NUCLA          NOT AVBL
$$

COZ017>023-064>068-041700-
...SOUTHWEST COLORADO...

CITY           SKY/WX    TMP DP  RH WIND       PRES   REMARKS
DURANGO        SUNNY     23  18  81 CALM      29.94R
CORTEZ         MOSUNNY   30  16  56 NW8       30.01R WCI  22
PAGOSA SPRINGS PTSUNNY   23  23 100 CALM      29.93R
TELLURIDE      LGT SNOW  18  16  95 W10       29.93R WCI   6
WOLF CREEK PAS CLOUDY     9   9 100 MISG      29.86R
$$

COZ009-010-012-014-032>034-037-058>063-041700-
...CENTRAL COLORADO...

CITY           SKY/WX    TMP DP  RH WIND       PRES   REMARKS
ASPEN          CLOUDY    15   8  73 N3        29.97R
BUENA VISTA    NOT AVBL
COPPER MTN     NOT AVBL
BERTHOUD PASS  NOT AVBL
COTTONWOOD PAS CLOUDY    18   7  62 CALM      29.86R
GUNNISON       MOSUNNY   19   9  63 N6        29.96R WCI  11
KREMMLING      MOSUNNY   18   3  53 E3        29.99R
LEADVILLE      CLOUDY     9  -3  58 N7        29.86R WCI  -2
SALIDA         NOT AVBL
SUNLIGHT       SUNNY      7   3  85 NW5         N/A  WCI  -2
WILKERSON PASS SNOW       5   1  85 CALM      29.83R VSB 1/4
$$

COZ069>075-041700-
...SAN LUIS VALLEY/SANGRE DE CRISTO MOUNTAINS...

CITY           SKY/WX    TMP DP  RH WIND       PRES   REMARKS
ALAMOSA        CLOUDY    30  13  49 CALM      29.89R
LA VETA PASS   SNOW       7   3  85 MISG      29.87R VSB 1/4
SAGUACHE       SUNNY     27  12  54 NW12      29.90R WCI  16
$$

COZ035-036-038>040-041700-
...NORTHERN COLORADO FRONT RANGE...

CITY           SKY/WX    TMP DP  RH WIND       PRES   REMARKS
DENVER INTL AP PTSUNNY   11   6  81 E7        30.14R WCI   0
DMNS CITY PARK   N/A     15  10  79 NE2       30.14S
AURORA         NOT AVBL
FRONT RANGE AP LGT SNOW  14  10  85 E3        30.14R
ERIE MUNI ARPT MOSUNNY   14   8  76 E8        30.16S WCI   3
BOULDER MUN AP FLURRIES  14  10  85 E6        30.14S WCI   5
CENTENNIAL     CLOUDY    10   6  84 SE5       30.10S FOG     WCI   2
BROOMFIELD     NOT AVBL
FORT COLLINS   MOSUNNY   12   9  85 SE7       30.18R WCI   2
LONGMONT       LGT SNOW  20  10  67 E5        30.18S WCI  13
$$

COZ041-046-047-076>085-087-088-041700-
...PIKES PEAK/PALMER DIVIDE AND SOUTHERN FOOTHILLS...

CITY           SKY/WX    TMP DP  RH WIND       PRES   REMARKS
COLO. SPRINGS  FLURRIES  12   4  70 NE8       30.09R WCI   0
A. F. ACADEMY  FLURRIES  10   3  72 N12       30.05R WCI  -4
ELLICOTT       NOT AVBL
FALCON         CLOUDY    10   3  71 N12       30.04R HAZE    WCI  -4
FORT CARSON    NOT AVBL
LIMON          CLOUDY    10   5  80 N7        30.15R WCI  -1
MONUMENT HILL  LGT SNOW  10   3  72 NE3       30.02S
TRINIDAD       LGT SNOW  19  16  88 N20       30.06R FOG     WCI   3
$$

COZ042>045-048>051-090-091-041700-
...NORTHEAST COLORADO...

CITY           SKY/WX    TMP DP  RH WIND       PRES   REMARKS
GREELEY ARPT   SUNNY     19   7  58 S5        30.18R WCI  13
AKRON          MOSUNNY   14   6  70 W9        30.17R WCI   2
BURLINGTON     CLOUDY    17   6  62 N14       30.21R WCI   3
WRAY           MOSUNNY   22   6  51 NW9       30.24R WCI  12
STERLING       MOSUNNY   19   9  63 W8        30.21R WCI   9
HOLYOKE        NOT AVBL
FORT MORGAN    PTSUNNY   18   6  60 W7        30.20S WCI   8
$$

COZ086-089-092>099-041700-
...SOUTHEAST COLORADO...

CITY           SKY/WX    TMP DP  RH WIND       PRES   REMARKS
PUEBLO         FLURRIES  17  11  77 NE16      30.18R WCI   2
LA JUNTA       LGT SNOW  20  15  81 NE15      30.20R WCI   6
LAMAR          LGT SNOW  20  15  81 NE14      30.22R WCI   7
SPRINGFIELD      N/A     17  14  88 NE15      30.16R WCI   2
$$



USA.gov is the U.S. government's official web portal to all federal, state and local government web resources and services.